EZY859F EGCC-EGAA

Flight info

Callsign EZY859F
Flight time 0h 35m
Altitude 24000
Route ASMIM L975 WAL M146 IPSET DCT LIRGU
Aircraft A320/M-SDE3FGHIRWY/LB1

Departure

Time 2026-04-30 19:36
Airport Manchester Airport (EGCC)

Arrival

Time 2026-04-30 20:12
Airport Belfast International Airport (EGAA)
Time Latitude Longitude Altitude Speed Heading
2026-04-30 19:02 53.36948 -2.28696 255 ft 0 kts 135°
2026-04-30 19:21 53.36955 -2.28708 255 ft 4 kts 135°
2026-04-30 19:22 53.36987 -2.28739 255 ft 4 kts 219°
2026-04-30 19:22 53.36953 -2.28796 255 ft 0 kts 225°
2026-04-30 19:26 53.36945 -2.28811 255 ft 5 kts 225°
2026-04-30 19:27 53.36872 -2.28933 255 ft 11 kts 225°
2026-04-30 19:27 53.36721 -2.29000 255 ft 13 kts 135°
2026-04-30 19:28 53.36654 -2.28902 255 ft 13 kts 160°
2026-04-30 19:28 53.36545 -2.28700 255 ft 11 kts 134°
2026-04-30 19:29 53.36437 -2.28519 255 ft 12 kts 136°
2026-04-30 19:29 53.36364 -2.28476 255 ft 11 kts 171°
2026-04-30 19:30 53.36174 -2.28186 255 ft 15 kts 136°
2026-04-30 19:30 53.36016 -2.27938 255 ft 16 kts 138°
2026-04-30 19:31 53.35800 -2.27867 250 ft 19 kts 186°
2026-04-30 19:31 53.35687 -2.27884 244 ft 12 kts 186°
2026-04-30 19:31 53.35534 -2.28080 234 ft 17 kts 221°
2026-04-30 19:32 53.35433 -2.28156 238 ft 13 kts 188°
2026-04-30 19:32 53.35365 -2.28175 235 ft 10 kts 194°
2026-04-30 19:32 53.35296 -2.28221 235 ft 11 kts 209°
2026-04-30 19:32 53.35236 -2.28301 232 ft 10 kts 226°
2026-04-30 19:33 53.35187 -2.28394 229 ft 12 kts 231°
2026-04-30 19:33 53.35131 -2.28508 227 ft 13 kts 230°
2026-04-30 19:33 53.35086 -2.28604 229 ft 9 kts 232°
2026-04-30 19:33 53.35030 -2.28717 228 ft 17 kts 227°
2026-04-30 19:34 53.34955 -2.28845 226 ft 12 kts 225°
2026-04-30 19:34 53.34897 -2.28947 223 ft 13 kts 226°
2026-04-30 19:34 53.34761 -2.29206 214 ft 16 kts 230°
2026-04-30 19:35 53.34685 -2.29327 211 ft 11 kts 206°
2026-04-30 19:35 53.34617 -2.29343 212 ft 11 kts 177°
2026-04-30 19:35 53.34541 -2.29261 218 ft 14 kts 105°
2026-04-30 19:35 53.34595 -2.29107 216 ft 27 kts 50°
2026-04-30 19:36 53.34873 -2.28530 230 ft 96 kts 51°
2026-04-30 19:36 53.35417 -2.27401 246 ft 150 kts 51°
2026-04-30 19:36 53.36890 -2.24417 1208 ft 176 kts 58°
2026-04-30 19:37 53.37687 -2.22783 1726 ft 191 kts 59°
2026-04-30 19:37 53.38607 -2.20970 2025 ft 219 kts 49°
2026-04-30 19:37 53.40124 -2.19891 2364 ft 262 kts
2026-04-30 19:37 53.41963 -2.20597 2984 ft 284 kts 328°
2026-04-30 19:38 53.43309 -2.22971 3871 ft 282 kts 291°
2026-04-30 19:38 53.43651 -2.26099 4870 ft 271 kts 258°
2026-04-30 19:38 53.43272 -2.29172 5808 ft 272 kts 257°
2026-04-30 19:38 53.43457 -2.32336 6608 ft 288 kts 288°
2026-04-30 19:39 53.44463 -2.35339 7465 ft 295 kts 301°
2026-04-30 19:39 53.45578 -2.38240 8325 ft 297 kts 299°
2026-04-30 19:39 53.46504 -2.41338 9156 ft 297 kts 284°
2026-04-30 19:39 53.46820 -2.44691 9945 ft 295 kts 264°
2026-04-30 19:40 53.46543 -2.48110 10508 ft 304 kts 255°
2026-04-30 19:40 53.46130 -2.51775 10790 ft 326 kts 255°
2026-04-30 19:40 53.45692 -2.55563 11381 ft 334 kts 255°
2026-04-30 19:40 53.45256 -2.59356 12153 ft 337 kts 255°
2026-04-30 19:41 53.44819 -2.63235 12936 ft 340 kts 255°
2026-04-30 19:41 53.44383 -2.67159 13669 ft 344 kts 254°
2026-04-30 19:41 53.43945 -2.71126 14337 ft 348 kts 254°
2026-04-30 19:41 53.43503 -2.75140 14970 ft 352 kts 254°
2026-04-30 19:42 53.43056 -2.79195 15608 ft 356 kts 254°
2026-04-30 19:42 53.42599 -2.83292 16209 ft 359 kts 254°
2026-04-30 19:42 53.42130 -2.87479 16837 ft 363 kts 254°
2026-04-30 19:42 53.41667 -2.91609 17444 ft 367 kts 254°
2026-04-30 19:43 53.41182 -2.95883 18064 ft 370 kts 253°
2026-04-30 19:43 53.40707 -3.00060 18634 ft 374 kts 253°
2026-04-30 19:43 53.40233 -3.04422 19185 ft 379 kts 257°
2026-04-30 19:44 53.40761 -3.13344 20269 ft 402 kts 284°
2026-04-30 19:44 53.41982 -3.17611 20801 ft 413 kts 299°
2026-04-30 19:44 53.43830 -3.21373 21333 ft 422 kts 311°
2026-04-30 19:44 53.45905 -3.24882 21847 ft 425 kts 311°
2026-04-30 19:45 53.47990 -3.28418 22382 ft 429 kts 311°
2026-04-30 19:45 53.50093 -3.32003 22889 ft 432 kts 311°
2026-04-30 19:45 53.52204 -3.35618 23412 ft 435 kts 311°
2026-04-30 19:45 53.54330 -3.39270 23887 ft 439 kts 311°
2026-04-30 19:46 53.56467 -3.42945 24107 ft 439 kts 311°
2026-04-30 19:46 53.58474 -3.46799 24162 ft 437 kts 302°
2026-04-30 19:46 53.60235 -3.50951 24166 ft 436 kts 301°
2026-04-30 19:46 53.61988 -3.55126 24162 ft 436 kts 301°
2026-04-30 19:47 53.63739 -3.59304 24161 ft 436 kts 301°
2026-04-30 19:47 53.64900 -3.62075 24158 ft 436 kts 301°
2026-04-30 19:47 53.67238 -3.67661 24155 ft 435 kts 301°
2026-04-30 19:47 53.68981 -3.71822 24158 ft 434 kts 301°
2026-04-30 19:48 53.70723 -3.75978 24151 ft 434 kts 301°
2026-04-30 19:48 53.72460 -3.80140 24151 ft 433 kts 301°
2026-04-30 19:48 53.74191 -3.84306 24150 ft 433 kts 301°
2026-04-30 19:48 53.75919 -3.88478 24150 ft 433 kts 301°
2026-04-30 19:49 53.77643 -3.92654 24154 ft 433 kts 301°
2026-04-30 19:49 53.81094 -4.01006 24153 ft 433 kts 301°
2026-04-30 19:49 53.82821 -4.05182 24152 ft 433 kts 301°
2026-04-30 19:50 53.84542 -4.09354 24157 ft 433 kts 301°
2026-04-30 19:50 53.86263 -4.13540 24150 ft 433 kts 301°
2026-04-30 19:50 53.87983 -4.17730 24150 ft 433 kts 301°
2026-04-30 19:50 53.89702 -4.21920 24151 ft 432 kts 301°
2026-04-30 19:51 53.91411 -4.26100 24141 ft 431 kts 301°
2026-04-30 19:51 53.93092 -4.30226 24143 ft 431 kts 300°
2026-04-30 19:51 53.94794 -4.34411 24142 ft 431 kts 300°
2026-04-30 19:51 53.96495 -4.38595 24141 ft 431 kts 300°
2026-04-30 19:52 53.98195 -4.42782 24142 ft 430 kts 300°
2026-04-30 19:52 53.99894 -4.46971 24139 ft 430 kts 300°
2026-04-30 19:52 54.01611 -4.51144 24138 ft 432 kts 303°
2026-04-30 19:52 54.03582 -4.55023 24140 ft 434 kts 309°
2026-04-30 19:53 54.05628 -4.58808 24137 ft 434 kts 309°
2026-04-30 19:53 54.07672 -4.62598 24139 ft 434 kts 309°
2026-04-30 19:53 54.09693 -4.66351 23974 ft 426 kts 309°
2026-04-30 19:53 54.11676 -4.70043 23743 ft 417 kts 309°
2026-04-30 19:54 54.13613 -4.73651 23473 ft 408 kts 308°
2026-04-30 19:54 54.15502 -4.77176 23226 ft 399 kts 309°
2026-04-30 19:54 54.17355 -4.80636 22954 ft 391 kts 308°
2026-04-30 19:54 54.19173 -4.84044 22687 ft 385 kts 308°
2026-04-30 19:55 54.20965 -4.87416 22413 ft 382 kts 308°
2026-04-30 19:55 54.22744 -4.90769 21953 ft 380 kts 308°
2026-04-30 19:55 54.24515 -4.94110 21480 ft 379 kts 308°
2026-04-30 19:55 54.26287 -4.97455 21020 ft 379 kts 308°
2026-04-30 19:56 54.28052 -5.00792 20557 ft 379 kts 308°
2026-04-30 19:56 54.29821 -5.04135 20090 ft 379 kts 308°
2026-04-30 19:56 54.31589 -5.07479 19621 ft 379 kts 308°
2026-04-30 19:56 54.33357 -5.10831 19162 ft 379 kts 308°
2026-04-30 19:57 54.35127 -5.14189 18691 ft 380 kts 308°
2026-04-30 19:57 54.36899 -5.17545 18204 ft 381 kts 308°
2026-04-30 19:57 54.38671 -5.20917 17711 ft 380 kts 308°
2026-04-30 19:57 54.40435 -5.24283 17272 ft 378 kts 308°
2026-04-30 19:58 54.42191 -5.27640 16825 ft 377 kts 308°
2026-04-30 19:58 54.43943 -5.30988 16407 ft 376 kts 308°
2026-04-30 19:58 54.45687 -5.34315 16000 ft 374 kts 308°
2026-04-30 19:58 54.47436 -5.37540 15609 ft 373 kts 309°
2026-04-30 19:59 54.49213 -5.40746 15285 ft 368 kts 307°
2026-04-30 19:59 54.50644 -5.44325 14897 ft 357 kts 291°
2026-04-30 19:59 54.51782 -5.52247 14006 ft 329 kts 263°
2026-04-30 20:00 54.51739 -5.56130 13615 ft 321 kts 262°
2026-04-30 20:00 54.51702 -5.59925 13255 ft 313 kts 262°
2026-04-30 20:00 54.51668 -5.63627 12900 ft 306 kts 262°
2026-04-30 20:00 54.51633 -5.67237 12553 ft 299 kts 262°
2026-04-30 20:01 54.51567 -5.74245 11873 ft 286 kts 262°
2026-04-30 20:01 54.51531 -5.77640 11535 ft 282 kts 262°
2026-04-30 20:01 54.51490 -5.81017 11188 ft 282 kts 262°
2026-04-30 20:02 54.51407 -5.87743 10518 ft 281 kts 262°
2026-04-30 20:02 54.51363 -5.91108 10168 ft 281 kts 262°
2026-04-30 20:03 54.51282 -5.97821 9431 ft 279 kts 263°
2026-04-30 20:03 54.51242 -6.01153 9067 ft 278 kts 263°
2026-04-30 20:03 54.51200 -6.04461 8709 ft 276 kts 263°
2026-04-30 20:03 54.51157 -6.07761 8336 ft 275 kts 263°
2026-04-30 20:04 54.51112 -6.11044 7969 ft 274 kts 263°
2026-04-30 20:04 54.51067 -6.14310 7600 ft 272 kts 264°
2026-04-30 20:04 54.51020 -6.17571 7214 ft 272 kts 264°
2026-04-30 20:05 54.50927 -6.24072 6428 ft 271 kts 264°
2026-04-30 20:05 54.50879 -6.27311 6023 ft 270 kts 264°
2026-04-30 20:05 54.50781 -6.33653 5580 ft 257 kts 264°
2026-04-30 20:06 54.50737 -6.36715 5392 ft 252 kts 263°
2026-04-30 20:06 54.50721 -6.39671 5259 ft 243 kts 270°
2026-04-30 20:06 54.51182 -6.42440 5153 ft 244 kts 295°
2026-04-30 20:06 54.52255 -6.44695 4887 ft 249 kts 322°
2026-04-30 20:07 54.53779 -6.46135 4447 ft 250 kts 335°
2026-04-30 20:07 54.54819 -6.46961 4194 ft 247 kts 335°
2026-04-30 20:07 54.58389 -6.47655 3390 ft 214 kts 43°
2026-04-30 20:08 54.59214 -6.45740 3069 ft 192 kts 73°
2026-04-30 20:08 54.59733 -6.43659 2779 ft 188 kts 71°
2026-04-30 20:08 54.60101 -6.42303 2582 ft 181 kts 72°
2026-04-30 20:08 54.60626 -6.40417 2354 ft 168 kts 72°
2026-04-30 20:09 54.61122 -6.38634 2142 ft 163 kts 73°
2026-04-30 20:09 54.61604 -6.36885 1918 ft 161 kts 74°
2026-04-30 20:09 54.62551 -6.33411 1483 ft 157 kts 71°
2026-04-30 20:10 54.63409 -6.30257 1089 ft 141 kts 70°
2026-04-30 20:10 54.63819 -6.28753 902 ft 136 kts 68°
2026-04-30 20:10 54.64225 -6.27277 753 ft 135 kts 67°
2026-04-30 20:11 54.65009 -6.24336 435 ft 134 kts 66°
2026-04-30 20:11 54.65395 -6.22906 275 ft 128 kts 65°
2026-04-30 20:11 54.65691 -6.21790 272 ft 81 kts 65°
2026-04-30 20:12 54.66014 -6.20592 275 ft 43 kts 64°
2026-04-30 20:12 54.66133 -6.20156 274 ft 37 kts 65°
2026-04-30 20:12 54.66233 -6.19785 275 ft 25 kts 65°
2026-04-30 20:13 54.66285 -6.19663 272 ft 12 kts 11°
2026-04-30 20:13 54.66360 -6.19711 272 ft 11 kts 328°
2026-04-30 20:13 54.66396 -6.19814 272 ft 10 kts 281°
2026-04-30 20:13 54.66381 -6.19916 273 ft 8 kts 248°
2026-04-30 20:14 54.66358 -6.20002 272 ft 7 kts 245°
2026-04-30 20:14 54.66327 -6.20116 272 ft 12 kts 245°
2026-04-30 20:14 54.66294 -6.20241 272 ft 11 kts 245°
2026-04-30 20:14 54.66262 -6.20358 274 ft 12 kts 245°
2026-04-30 20:15 54.66218 -6.20523 272 ft 16 kts 245°
2026-04-30 20:15 54.66172 -6.20693 272 ft 15 kts 245°
2026-04-30 20:15 54.66131 -6.20847 273 ft 13 kts 245°
2026-04-30 20:15 54.66093 -6.20987 274 ft 12 kts 244°
2026-04-30 20:16 54.66059 -6.21112 272 ft 11 kts 245°
2026-04-30 20:16 54.66072 -6.21215 272 ft 9 kts 326°
2026-04-30 20:16 54.66118 -6.21256 274 ft 5 kts 330°
2026-04-30 20:16 54.66124 -6.21297 272 ft 3 kts 255°
2026-04-30 20:17 54.66117 -6.21325 272 ft 2 kts 244°
2026-04-30 20:17 54.66112 -6.21343 272 ft 2 kts 245°
2026-04-30 20:17 54.66110 -6.21353 275 ft 0 kts 245°